START_TIME,STEP,MOV.,M15,t_acc.,M20,t_acc.
1979-07-20 06:00:43.690 ,0,1,0.,24.0,0.,24.0
1979-07-20 06:01:07.690 ,4,1,0.,24.0,0.,24.0
1979-07-20 06:01:31.690 ,7,1,0.,24.0,0.,24.0
1979-07-20 06:01:55.690 ,3,1,0.,24.0,0.,24.0
1979-07-20 06:02:19.690 ,0,1,0.,24.0,0.,24.0
1979-07-20 06:02:43.690 ,4,1,0.,24.0,0.,24.0
1979-07-20 06:03:07.690 ,7,1,0.,24.0,0.,24.0
1979-07-20 06:03:31.690 ,3,1,0.,24.0,0.,24.0
1979-07-20 06:03:55.690 ,0,1,0.,24.0,0.,24.0
1979-07-20 06:04:19.690 ,4,1,0.,24.0,0.,24.0
1979-07-20 06:04:43.690 ,7,1,0.,24.0,0.,24.0
1979-07-20 06:05:07.690 ,3,1,0.,24.0,0.,24.0
1979-07-20 06:05:31.690 ,0,1,0.,24.0,0.,24.0
1979-07-20 06:05:55.690 ,0,0,0.,24.0,0.,24.0
1979-07-20 06:06:19.690 ,0,0,0.,24.0,0.,24.0
1979-07-20 06:06:43.690 ,5,1,0.,24.0,0.,24.0
1979-07-20 06:07:07.690 ,5,0,0.,24.0,0.,24.0
1979-07-20 06:07:31.690 ,4,1,0.,24.0,0.,24.0
1979-07-20 06:07:55.690 ,4,0,0.,24.0,0.,24.0
1979-07-20 06:08:19.690 ,3,1,0.,24.0,0.,24.0
1979-07-20 06:08:43.690 ,3,0,0.,24.0,0.,24.0
1979-07-20 06:09:07.690 ,2,1,0.,24.0,0.,24.0
1979-07-20 06:09:31.690 ,2,0,0.,24.0,0.,24.0
1979-07-20 06:09:55.690 ,1,1,0.,24.0,0.,24.0
1979-07-20 06:10:19.690 ,1,0,0.,24.0,0.,24.0
1979-07-20 06:10:43.690 ,0,1,0.,24.0,0.,24.0
1979-07-20 06:11:07.690 ,0,0,0.,24.0,0.,24.0
1979-07-20 06:11:31.690 ,0,1,0.,24.0,0.,24.0
1979-07-20 06:11:55.690 ,0,0,0.,24.0,0.,24.0
1979-07-20 06:12:19.690 ,1,1,0.,24.0,0.,24.0
1979-07-20 06:12:43.690 ,1,0,0.,24.0,0.,24.0
1979-07-20 06:13:07.690 ,2,1,0.,24.0,0.,24.0
1979-07-20 06:13:31.690 ,2,0,0.,24.0,0.,24.0
1979-07-20 06:13:55.690 ,3,1,0.,24.0,0.,24.0
1979-07-20 06:14:19.690 ,3,0,0.,24.0,0.,24.0
1979-07-20 06:14:43.690 ,4,1,0.,24.0,0.,24.0
1979-07-20 06:15:07.690 ,4,0,0.,24.0,0.,24.0
1979-07-20 06:16:19.690 ,0,0,0.,24.0,0.,24.0
1979-07-20 06:16:43.690 ,0,0,0.,24.0,0.,24.0
1979-07-20 06:17:07.690 ,7,1,0.,24.0,0.,24.0
1979-07-20 06:17:31.690 ,7,0,0.,24.0,0.,24.0
1979-07-20 06:17:55.690 ,7,1,0.,24.0,0.,24.0
1979-07-20 06:18:19.690 ,7,0,0.,24.0,0.,24.0
1979-07-20 06:18:43.690 ,6,1,0.,24.0,0.,24.0
1979-07-20 06:19:07.690 ,6,0,0.,24.0,0.,24.0
1979-07-20 06:19:31.690 ,5,1,0.,24.0,0.,24.0
1979-07-20 06:19:55.690 ,5,0,0.,24.0,0.,24.0
1979-07-20 06:20:19.690 ,4,1,0.,24.0,0.,24.0
1979-07-20 06:20:43.690 ,4,0,0.,24.0,0.,24.0
1979-07-20 06:21:07.690 ,3,1,0.,24.0,0.,24.0
1979-07-20 06:21:31.690 ,0,0,,0,,0
1979-07-20 06:22:01.090 ,0,0,0.,24.0,0.,24.0
1979-07-20 06:22:19.690 ,0,0,0.,24.0,0.,24.0
1979-07-20 06:22:43.690 ,1,1,0.,24.0,0.,24.0
1979-07-20 06:23:07.690 ,1,0,0.,24.0,0.,24.0
1979-07-20 06:23:31.690 ,0,1,0.,24.0,0.,24.0
1979-07-20 06:23:55.690 ,0,0,0.,24.0,0.,24.0
1979-07-20 06:24:19.690 ,0,1,0.,24.0,0.,24.0
1979-07-20 06:24:43.690 ,0,0,0.,24.0,0.,24.0
1979-07-20 06:25:07.690 ,1,1,0.,24.0,0.,24.0
1979-07-20 06:25:31.690 ,1,0,0.,24.0,0.,24.0
1979-07-20 06:25:55.690 ,2,1,0.,24.0,0.,24.0
1979-07-20 06:26:19.690 ,2,0,0.,24.0,0.,24.0
1979-07-20 06:26:43.690 ,3,1,0.,24.0,0.,24.0
1979-07-20 06:27:07.690 ,3,0,0.,24.0,0.,24.0
1979-07-20 06:27:31.690 ,4,1,0.,24.0,0.,24.0
1979-07-20 06:27:55.690 ,4,0,0.,24.0,0.,24.0
1979-07-20 06:28:19.690 ,5,1,0.,24.0,0.,24.0
1979-07-20 06:28:43.690 ,5,0,0.,24.0,0.,24.0
1979-07-20 06:29:07.690 ,6,1,0.,24.0,0.,24.0
1979-07-20 06:29:31.690 ,6,0,0.,24.0,0.,24.0
1979-07-20 06:29:55.690 ,7,1,0.,24.0,0.,24.0
1979-07-20 06:30:19.690 ,7,0,0.,24.0,0.,24.0
1979-07-20 06:30:43.690 ,7,1,0.,24.0,0.,24.0
1979-07-20 06:31:07.690 ,7,0,0.,24.0,0.,24.0
1979-07-20 06:31:31.690 ,6,1,0.,24.0,0.,24.0
1979-07-20 06:31:55.690 ,6,0,0.,24.0,0.,24.0
1979-07-20 06:32:19.690 ,5,1,0.,24.0,0.,24.0
1979-07-20 06:32:43.690 ,5,0,0.,24.0,0.,24.0
1979-07-20 06:33:07.690 ,4,1,0.,24.0,0.,24.0
1979-07-20 06:33:31.690 ,4,0,0.,24.0,0.,24.0
1979-07-20 06:33:55.690 ,3,1,0.,24.0,0.,24.0
1979-07-20 06:34:19.690 ,3,0,0.,24.0,0.,24.0
1979-07-20 06:34:43.690 ,2,1,0.,24.0,0.,24.0
1979-07-20 06:35:07.690 ,2,0,0.,24.0,0.,24.0
1979-07-20 06:35:31.690 ,1,1,0.,24.0,0.,24.0
1979-07-20 06:35:55.690 ,1,0,0.,24.0,0.,24.0
1979-07-20 06:36:19.690 ,0,1,0.,24.0,0.,24.0
1979-07-20 06:36:43.690 ,0,0,0.,24.0,0.,24.0
1979-07-20 06:37:07.690 ,0,1,0.,24.0,0.,24.0
1979-07-20 06:37:31.690 ,0,0,,0,,0
1979-07-20 06:37:51.490 ,0,1,0.,24.0,0.,24.0
1979-07-20 06:37:55.690 ,1,1,0.,24.0,0.,24.0
1979-07-20 06:38:19.690 ,1,0,0.,24.0,0.,24.0
1979-07-20 06:38:43.690 ,2,1,0.,24.0,0.,24.0
1979-07-20 06:39:07.690 ,2,0,0.,24.0,0.,24.0
1979-07-20 06:39:31.690 ,3,1,0.,24.0,0.,24.0
1979-07-20 06:39:55.690 ,3,0,0.,24.0,0.,24.0
1979-07-20 06:40:19.690 ,4,1,0.,24.0,0.,24.0
1979-07-20 06:40:43.690 ,4,0,0.,24.0,0.,24.0
1979-07-20 06:41:07.690 ,5,1,0.,24.0,0.,24.0
1979-07-20 06:41:31.690 ,5,0,0.,24.0,0.,24.0
1979-07-20 06:41:55.690 ,6,1,0.,24.0,0.,24.0
1979-07-20 06:42:19.690 ,6,0,0.,24.0,0.,24.0
1979-07-20 06:42:43.690 ,7,0,0.,24.0,0.,24.0
1979-07-20 06:43:07.690 ,7,0,0.,24.0,0.,24.0
1979-07-20 06:43:31.690 ,3,1,0.,24.0,0.,24.0
1979-07-20 06:43:55.690 ,0,1,0.,24.0,0.,24.0
1979-07-20 06:44:19.690 ,4,1,0.,24.0,0.,24.0
1979-07-20 06:44:43.690 ,7,1,0.,24.0,0.,24.0
1979-07-20 06:45:07.690 ,3,1,0.,24.0,0.,24.0
1979-07-20 06:45:31.690 ,0,1,0.,24.0,0.,24.0
1979-07-20 06:45:55.690 ,4,1,0.,24.0,0.,24.0
1979-07-20 06:46:19.690 ,7,1,0.,24.0,0.,24.0
1979-07-20 06:46:43.690 ,3,1,0.,24.0,0.,24.0
1979-07-20 06:47:07.690 ,0,1,0.,24.0,0.,24.0
1979-07-20 06:47:31.690 ,4,1,0.,24.0,0.,24.0
1979-07-20 06:47:55.690 ,7,1,0.,24.0,0.,24.0
1979-07-20 06:48:19.690 ,3,1,1.,24.0,0.,24.0
1979-07-20 06:48:43.690 ,0,1,0.,24.0,0.,24.0
1979-07-20 06:49:07.690 ,4,1,0.,24.0,0.,24.0
1979-07-20 06:49:31.690 ,7,1,0.,24.0,0.,24.0
1979-07-20 06:49:55.690 ,3,1,0.,24.0,0.,24.0
1979-07-20 06:50:19.690 ,0,1,0.,24.0,0.,24.0
1979-07-20 06:50:43.690 ,4,1,0.,24.0,0.,24.0
1979-07-20 06:51:07.690 ,7,1,0.,24.0,0.,24.0
1979-07-20 06:51:31.690 ,3,1,0.,24.0,0.,24.0
1979-07-20 06:51:55.690 ,0,1,0.,24.0,0.,24.0
1979-07-20 06:52:19.690 ,4,1,0.,24.0,0.,24.0
1979-07-20 06:52:43.690 ,7,1,0.,24.0,0.,24.0
1979-07-20 06:53:07.690 ,3,1,0.,24.0,0.,24.0
1979-07-20 06:53:31.690 ,0,1,0.,24.0,0.,24.0
1979-07-20 06:53:55.690 ,0,0,0.,24.0,0.,24.0
1979-07-20 06:54:19.690 ,0,0,0.,24.0,0.,24.0
1979-07-20 06:54:43.690 ,5,1,0.,24.0,0.,24.0
1979-07-20 06:55:07.690 ,5,0,0.,24.0,0.,24.0
1979-07-20 06:55:31.690 ,4,1,0.,24.0,0.,24.0
1979-07-20 06:55:55.690 ,4,0,0.,24.0,0.,24.0
1979-07-20 06:56:19.690 ,3,1,0.,24.0,0.,24.0
1979-07-20 06:56:43.690 ,3,0,0.,24.0,0.,24.0
1979-07-20 06:57:07.690 ,2,1,0.,24.0,0.,24.0
1979-07-20 06:57:31.690 ,2,0,0.,24.0,0.,24.0
1979-07-20 06:57:55.690 ,1,1,0.,24.0,0.,24.0
1979-07-20 06:58:19.690 ,1,0,0.,24.0,0.,24.0
1979-07-20 06:58:43.690 ,0,1,0.,24.0,0.,24.0
1979-07-20 06:59:07.690 ,0,0,0.,24.0,0.,24.0
1979-07-20 06:59:31.690 ,0,1,0.,24.0,0.,24.0
1979-07-20 06:59:55.690 ,0,0,0.,24.0,0.,24.0
1979-07-20 07:00:19.690 ,1,1,0.,24.0,0.,24.0
1979-07-20 07:00:43.690 ,1,0,0.,24.0,0.,24.0
1979-07-20 07:01:07.690 ,2,1,0.,24.0,0.,24.0
1979-07-20 07:01:31.690 ,2,0,0.,24.0,0.,24.0
1979-07-20 07:01:55.690 ,3,1,0.,24.0,0.,24.0
1979-07-20 07:02:19.690 ,3,0,0.,24.0,0.,24.0
1979-07-20 07:02:43.690 ,4,1,0.,24.0,0.,24.0
1979-07-20 07:03:07.690 ,4,0,0.,24.0,0.,24.0
1979-07-20 07:03:31.690 ,5,1,0.,24.0,0.,24.0
1979-07-20 07:03:55.690 ,5,0,0.,24.0,0.,24.0
1979-07-20 07:04:19.690 ,6,1,0.,24.0,0.,24.0
1979-07-20 07:04:43.690 ,6,0,0.,24.0,0.,24.0
1979-07-20 07:05:07.690 ,7,1,0.,24.0,0.,24.0
1979-07-20 07:05:31.690 ,7,0,0.,24.0,0.,24.0
1979-07-20 07:05:55.690 ,7,1,0.,24.0,0.,24.0
1979-07-20 07:06:19.690 ,7,0,0.,24.0,0.,24.0
1979-07-20 07:06:43.690 ,6,1,0.,24.0,0.,24.0
1979-07-20 07:07:07.690 ,6,0,0.,24.0,0.,24.0
1979-07-20 07:07:31.690 ,5,1,0.,24.0,0.,24.0
1979-07-20 07:07:55.690 ,5,0,0.,24.0,0.,24.0
1979-07-20 07:08:19.690 ,4,1,0.,24.0,0.,24.0
1979-07-20 07:08:43.690 ,4,0,0.,24.0,0.,24.0
1979-07-20 07:09:07.690 ,3,1,0.,24.0,0.,24.0
1979-07-20 07:09:31.690 ,3,0,0.,24.0,0.,24.0
1979-07-20 07:09:55.690 ,2,1,0.,24.0,0.,24.0
1979-07-20 07:10:19.690 ,2,0,0.,24.0,0.,24.0
1979-07-20 07:10:43.690 ,1,1,0.,24.0,0.,24.0
1979-07-20 07:11:07.690 ,1,0,0.,24.0,0.,24.0
1979-07-20 07:11:31.690 ,0,1,0.,24.0,0.,24.0
1979-07-20 07:11:55.690 ,0,0,0.,24.0,0.,24.0
1979-07-20 07:12:19.690 ,0,1,0.,24.0,0.,24.0
1979-07-20 07:12:43.690 ,0,0,0.,24.0,0.,24.0
1979-07-20 07:13:07.690 ,1,1,0.,24.0,0.,24.0
1979-07-20 07:13:31.690 ,1,0,0.,24.0,0.,24.0
1979-07-20 07:13:55.690 ,2,1,0.,24.0,0.,24.0
1979-07-20 07:14:19.690 ,2,0,0.,24.0,0.,24.0
1979-07-20 07:14:43.690 ,3,1,0.,24.0,0.,24.0
1979-07-20 07:15:07.690 ,3,0,0.,24.0,0.,24.0
1979-07-20 07:15:31.690 ,4,1,0.,24.0,0.,24.0
1979-07-20 07:15:55.690 ,4,0,0.,24.0,0.,24.0
1979-07-20 07:16:19.690 ,5,1,0.,24.0,0.,24.0
1979-07-20 07:16:43.690 ,5,0,0.,24.0,0.,24.0
1979-07-20 07:17:07.690 ,6,1,0.,24.0,0.,24.0
1979-07-20 07:17:31.690 ,6,0,0.,24.0,0.,24.0
1979-07-20 07:17:55.690 ,7,1,0.,24.0,0.,24.0
1979-07-20 07:18:19.690 ,7,0,0.,24.0,0.,24.0
1979-07-20 07:18:43.690 ,7,1,0.,24.0,0.,24.0
1979-07-20 07:19:07.690 ,7,0,0.,24.0,0.,24.0
1979-07-20 07:19:31.690 ,6,1,0.,24.0,0.,24.0
1979-07-20 07:19:55.690 ,6,0,0.,24.0,0.,24.0
1979-07-20 07:20:19.690 ,5,1,0.,24.0,0.,24.0
1979-07-20 07:20:43.690 ,5,0,0.,24.0,0.,24.0
1979-07-20 07:21:07.690 ,4,1,0.,24.0,0.,24.0
1979-07-20 07:21:31.690 ,4,0,0.,24.0,0.,24.0
1979-07-20 07:21:55.690 ,3,1,0.,24.0,0.,24.0
1979-07-20 07:22:19.690 ,3,0,0.,24.0,0.,24.0
1979-07-20 07:22:43.690 ,2,1,0.,24.0,0.,24.0
1979-07-20 07:23:07.690 ,2,0,0.,24.0,0.,24.0
1979-07-20 07:23:31.690 ,1,1,0.,24.0,0.,24.0
1979-07-20 07:23:55.690 ,1,0,0.,24.0,0.,24.0
1979-07-20 07:24:19.690 ,0,1,0.,24.0,0.,24.0
1979-07-20 07:24:43.690 ,0,0,0.,24.0,0.,24.0
1979-07-20 07:25:07.690 ,0,1,0.,24.0,0.,24.0
1979-07-20 07:25:31.690 ,0,0,0.,24.0,0.,24.0
1979-07-20 07:25:55.690 ,1,1,0.,24.0,0.,24.0
1979-07-20 07:26:19.690 ,1,0,0.,24.0,0.,24.0
1979-07-20 07:26:43.690 ,2,1,0.,24.0,0.,24.0
1979-07-20 07:27:07.690 ,2,0,0.,24.0,0.,24.0
1979-07-20 07:27:31.690 ,3,1,0.,24.0,0.,24.0
1979-07-20 07:27:55.690 ,3,0,0.,24.0,0.,24.0
1979-07-20 07:28:19.690 ,4,1,0.,24.0,0.,24.0
1979-07-20 07:28:43.690 ,4,0,0.,24.0,0.,24.0
1979-07-20 07:29:07.690 ,5,1,0.,24.0,0.,24.0
1979-07-20 07:29:31.690 ,5,0,0.,24.0,0.,24.0
1979-07-20 07:29:55.690 ,6,1,0.,24.0,0.,24.0
1979-07-20 07:30:19.690 ,6,0,0.,24.0,0.,24.0
1979-07-20 07:30:43.690 ,7,0,0.,24.0,0.,24.0
1979-07-20 07:31:07.690 ,7,0,0.,24.0,0.,24.0
1979-07-20 07:31:31.690 ,3,1,0.,24.0,0.,24.0
1979-07-20 07:31:55.690 ,0,1,0.,24.0,0.,24.0
1979-07-20 07:32:19.690 ,4,1,0.,24.0,0.,24.0
1979-07-20 07:32:43.690 ,7,1,0.,24.0,0.,24.0
1979-07-20 07:33:07.690 ,3,1,0.,24.0,0.,24.0
1979-07-20 07:33:31.690 ,0,1,0.,24.0,0.,24.0
1979-07-20 07:33:55.690 ,4,1,0.,24.0,0.,24.0
1979-07-20 07:34:19.690 ,7,1,0.,24.0,0.,24.0
1979-07-20 07:34:43.690 ,3,1,0.,24.0,0.,24.0
1979-07-20 07:35:07.690 ,0,1,0.,24.0,0.,24.0
1979-07-20 07:35:31.690 ,4,1,0.,24.0,0.,24.0
1979-07-20 07:35:55.690 ,7,1,0.,24.0,0.,24.0
1979-07-20 07:36:19.690 ,3,1,0.,24.0,0.,24.0
1979-07-20 07:36:43.690 ,0,1,0.,24.0,0.,24.0
1979-07-20 07:37:07.690 ,4,1,0.,24.0,0.,24.0
1979-07-20 07:37:31.690 ,7,1,0.,24.0,0.,24.0
1979-07-20 07:37:55.690 ,3,1,0.,24.0,0.,24.0
1979-07-20 07:38:19.690 ,0,1,0.,24.0,0.,24.0
1979-07-20 07:38:43.690 ,4,1,0.,24.0,0.,24.0
1979-07-20 07:39:07.690 ,7,1,0.,24.0,0.,24.0
1979-07-20 07:39:31.690 ,3,1,0.,24.0,0.,24.0
1979-07-20 07:39:55.690 ,0,1,0.,24.0,0.,24.0
1979-07-20 07:41:07.690 ,0,0,0.,24.0,0.,24.0
1979-07-20 07:41:31.690 ,0,1,0.,24.0,0.,24.0
1979-07-20 07:41:55.690 ,0,0,0.,24.0,0.,24.0
1979-07-20 07:42:19.690 ,0,0,0.,24.0,0.,24.0
1979-07-20 07:42:43.690 ,5,1,0.,24.0,0.,24.0
1979-07-20 07:43:07.690 ,5,0,0.,24.0,0.,24.0
1979-07-20 07:43:31.690 ,4,1,0.,24.0,0.,24.0
1979-07-20 07:43:55.690 ,4,0,0.,24.0,0.,24.0
1979-07-20 07:44:19.690 ,3,1,0.,24.0,0.,24.0
1979-07-20 07:44:43.690 ,3,0,0.,24.0,0.,24.0
1979-07-20 07:45:07.690 ,2,1,0.,24.0,0.,24.0
1979-07-20 07:45:31.690 ,2,0,0.,24.0,0.,24.0
1979-07-20 07:45:55.690 ,1,1,0.,24.0,0.,24.0
1979-07-20 07:46:19.690 ,1,0,0.,24.0,0.,24.0
1979-07-20 07:46:43.690 ,0,1,0.,24.0,0.,24.0
1979-07-20 07:47:07.690 ,0,0,0.,24.0,0.,24.0
1979-07-20 07:47:31.690 ,0,1,0.,24.0,0.,24.0
1979-07-20 07:47:55.690 ,0,0,0.,24.0,0.,24.0
1979-07-20 07:48:19.690 ,1,1,0.,24.0,0.,24.0
1979-07-20 07:48:43.690 ,1,0,0.,24.0,0.,24.0
1979-07-20 07:49:07.690 ,2,1,0.,24.0,0.,24.0
1979-07-20 07:49:31.690 ,2,0,0.,24.0,0.,24.0
1979-07-20 07:49:55.690 ,3,1,0.,24.0,0.,24.0
1979-07-20 07:50:19.690 ,3,0,0.,24.0,0.,24.0
1979-07-20 07:50:43.690 ,4,1,0.,24.0,0.,24.0
1979-07-20 07:51:07.690 ,4,0,0.,24.0,0.,24.0
1979-07-20 07:51:31.690 ,5,1,0.,24.0,0.,24.0
1979-07-20 07:51:55.690 ,5,0,0.,24.0,0.,24.0
1979-07-20 07:52:19.690 ,6,1,0.,24.0,0.,24.0
1979-07-20 07:52:43.690 ,6,0,0.,24.0,0.,24.0
1979-07-20 07:53:07.690 ,7,1,0.,24.0,0.,24.0
1979-07-20 07:53:31.690 ,7,0,0.,24.0,0.,24.0
1979-07-20 07:53:55.690 ,7,1,0.,24.0,0.,24.0
1979-07-20 07:54:19.690 ,7,0,0.,24.0,0.,24.0
1979-07-20 07:54:43.690 ,6,1,0.,24.0,0.,24.0
1979-07-20 07:55:07.690 ,6,0,0.,24.0,0.,24.0
1979-07-20 07:55:31.690 ,5,1,0.,24.0,0.,24.0
1979-07-20 07:55:55.690 ,5,0,0.,24.0,0.,24.0
1979-07-20 07:56:19.690 ,4,1,0.,24.0,0.,24.0
1979-07-20 07:56:43.690 ,4,0,0.,24.0,0.,24.0
1979-07-20 07:57:07.690 ,3,1,0.,24.0,0.,24.0
1979-07-20 07:57:31.690 ,3,0,0.,24.0,0.,24.0
1979-07-20 07:57:55.690 ,2,1,0.,24.0,0.,24.0
1979-07-20 07:58:19.690 ,2,0,0.,24.0,0.,24.0
1979-07-20 07:58:43.690 ,1,1,0.,24.0,0.,24.0
1979-07-20 07:59:07.690 ,1,0,0.,24.0,0.,24.0
1979-07-20 07:59:31.690 ,0,1,0.,24.0,0.,24.0
1979-07-20 07:59:55.690 ,0,0,0.,24.0,0.,24.0
1979-07-20 08:00:19.690 ,0,1,0.,24.0,0.,24.0
1979-07-20 08:00:43.690 ,0,0,0.,24.0,0.,24.0
1979-07-20 08:01:07.690 ,1,1,0.,24.0,0.,24.0
1979-07-20 08:01:31.690 ,1,0,0.,24.0,0.,24.0
1979-07-20 08:01:55.690 ,2,1,0.,24.0,0.,24.0
1979-07-20 08:02:19.690 ,2,0,0.,24.0,0.,24.0
1979-07-20 08:02:43.690 ,3,1,0.,24.0,0.,24.0
1979-07-20 08:03:07.690 ,3,0,0.,24.0,0.,24.0
1979-07-20 08:03:31.690 ,4,1,0.,24.0,0.,24.0
1979-07-20 08:03:55.690 ,4,0,0.,24.0,0.,24.0
1979-07-20 08:04:19.690 ,5,1,0.,24.0,0.,24.0
1979-07-20 08:04:43.690 ,5,0,0.,24.0,0.,24.0
1979-07-20 08:05:07.690 ,6,1,0.,24.0,0.,24.0
1979-07-20 08:05:31.690 ,6,0,0.,24.0,0.,24.0
1979-07-20 08:05:55.690 ,7,1,0.,24.0,0.,24.0
1979-07-20 08:06:19.690 ,7,0,0.,24.0,0.,24.0
1979-07-20 08:06:43.690 ,7,1,0.,24.0,0.,24.0
1979-07-20 08:07:07.690 ,7,0,0.,24.0,0.,24.0
1979-07-20 08:07:31.690 ,6,1,0.,24.0,0.,24.0
1979-07-20 08:07:55.690 ,6,0,0.,24.0,0.,24.0
1979-07-20 08:08:19.690 ,5,1,0.,24.0,0.,24.0
1979-07-20 08:08:43.690 ,5,0,0.,24.0,0.,24.0
1979-07-20 08:09:07.690 ,4,1,0.,24.0,0.,24.0
1979-07-20 08:09:31.690 ,4,0,0.,24.0,0.,24.0
1979-07-20 08:09:55.690 ,3,1,0.,24.0,0.,24.0
1979-07-20 08:10:19.690 ,3,0,0.,24.0,0.,24.0
1979-07-20 08:10:43.690 ,2,1,0.,24.0,0.,24.0
1979-07-20 08:11:07.690 ,2,0,0.,24.0,0.,24.0
1979-07-20 08:11:31.690 ,1,1,0.,24.0,0.,24.0
1979-07-20 08:11:55.690 ,1,0,0.,24.0,0.,24.0
1979-07-20 08:12:19.690 ,0,1,0.,24.0,0.,24.0
1979-07-20 08:12:43.690 ,0,0,0.,24.0,0.,24.0
1979-07-20 08:13:07.690 ,0,1,0.,24.0,0.,24.0
1979-07-20 08:13:31.690 ,0,0,0.,24.0,0.,24.0
1979-07-20 08:13:55.690 ,1,1,0.,24.0,0.,24.0
1979-07-20 08:14:19.690 ,1,0,0.,24.0,0.,24.0
1979-07-20 08:14:43.690 ,2,1,0.,24.0,0.,24.0
1979-07-20 08:15:07.690 ,2,0,0.,24.0,0.,24.0
1979-07-20 08:15:31.690 ,3,1,0.,24.0,0.,24.0
1979-07-20 08:15:55.690 ,3,0,0.,24.0,0.,24.0
1979-07-20 08:16:19.690 ,4,1,0.,24.0,0.,24.0
1979-07-20 08:16:43.690 ,4,0,0.,24.0,0.,24.0
1979-07-20 08:17:07.690 ,5,1,0.,24.0,0.,24.0
1979-07-20 08:17:31.690 ,5,0,0.,24.0,0.,24.0
1979-07-20 08:17:55.690 ,6,1,0.,24.0,0.,24.0
1979-07-20 08:18:19.690 ,6,0,0.,24.0,0.,24.0
1979-07-20 08:18:43.690 ,7,0,0.,24.0,0.,24.0
1979-07-20 08:19:07.690 ,7,0,0.,24.0,0.,24.0
1979-07-20 08:19:31.690 ,3,1,0.,24.0,0.,24.0
1979-07-20 08:19:55.690 ,0,1,0.,24.0,0.,24.0
1979-07-20 08:20:19.690 ,4,1,0.,24.0,0.,24.0
1979-07-20 08:20:43.690 ,7,1,0.,24.0,0.,24.0
1979-07-20 08:21:07.690 ,3,1,0.,24.0,0.,24.0
1979-07-20 08:21:31.690 ,0,1,0.,24.0,0.,24.0
1979-07-20 08:21:55.690 ,4,1,0.,24.0,0.,24.0
1979-07-20 08:22:19.690 ,7,1,0.,24.0,0.,24.0
1979-07-20 08:22:43.690 ,3,1,0.,24.0,0.,24.0
1979-07-20 08:23:07.690 ,0,1,0.,24.0,0.,24.0
1979-07-20 08:23:31.690 ,4,1,0.,24.0,0.,24.0
1979-07-20 08:23:55.690 ,7,1,0.,24.0,0.,24.0
1979-07-20 08:24:19.690 ,3,1,0.,24.0,0.,24.0
1979-07-20 08:24:43.690 ,0,1,0.,24.0,0.,24.0
1979-07-20 08:25:07.690 ,4,1,0.,24.0,0.,24.0
1979-07-20 08:25:31.690 ,7,1,0.,24.0,0.,24.0
1979-07-20 08:25:55.690 ,3,1,0.,24.0,0.,24.0
1979-07-20 08:26:19.690 ,0,1,0.,24.0,0.,24.0
1979-07-20 08:26:43.690 ,4,1,0.,24.0,0.,24.0
1979-07-20 08:27:07.690 ,7,1,0.,24.0,0.,24.0
1979-07-20 08:27:31.690 ,3,1,0.,24.0,0.,24.0
1979-07-20 08:27:55.690 ,0,1,0.,24.0,0.,24.0
1979-07-20 08:28:19.690 ,4,1,0.,24.0,0.,24.0
1979-07-20 08:28:43.690 ,7,1,0.,24.0,0.,24.0
1979-07-20 08:29:07.690 ,3,1,0.,24.0,0.,24.0
1979-07-20 08:29:31.690 ,0,1,0.,24.0,0.,24.0
1979-07-20 08:29:55.690 ,0,0,0.,24.0,0.,24.0
1979-07-20 08:30:19.690 ,0,0,0.,24.0,0.,24.0
1979-07-20 08:30:43.690 ,5,1,0.,24.0,0.,24.0
1979-07-20 08:31:07.690 ,5,0,0.,24.0,0.,24.0
1979-07-20 08:31:31.690 ,4,1,0.,24.0,0.,24.0
1979-07-20 08:31:55.690 ,4,0,0.,24.0,0.,24.0
1979-07-20 08:32:19.690 ,3,1,0.,24.0,0.,24.0
1979-07-20 08:32:43.690 ,3,0,0.,24.0,0.,24.0
1979-07-20 08:33:07.690 ,2,1,0.,24.0,0.,24.0
1979-07-20 08:33:31.690 ,2,0,0.,24.0,0.,24.0
1979-07-20 08:33:55.690 ,1,1,0.,24.0,0.,24.0
1979-07-20 08:34:19.690 ,1,0,0.,24.0,0.,24.0
1979-07-20 08:34:43.690 ,0,1,0.,24.0,0.,24.0
1979-07-20 08:35:07.690 ,0,0,0.,24.0,0.,24.0
1979-07-20 08:35:31.690 ,0,1,0.,24.0,0.,24.0
1979-07-20 08:35:55.690 ,0,0,0.,24.0,0.,24.0
1979-07-20 08:36:19.690 ,1,1,0.,24.0,0.,24.0
1979-07-20 08:36:43.690 ,1,0,0.,24.0,0.,24.0
1979-07-20 08:37:07.690 ,2,1,0.,24.0,0.,24.0
1979-07-20 08:37:31.690 ,2,0,0.,24.0,0.,24.0
1979-07-20 08:37:55.690 ,3,1,0.,24.0,0.,24.0
1979-07-20 08:38:19.690 ,3,0,0.,24.0,0.,24.0
1979-07-20 08:38:43.690 ,4,1,0.,24.0,0.,24.0
1979-07-20 08:39:07.690 ,4,0,0.,24.0,0.,24.0
1979-07-20 08:39:31.690 ,5,1,0.,24.0,0.,24.0
1979-07-20 08:39:55.690 ,5,0,0.,24.0,0.,24.0
1979-07-20 08:40:19.690 ,6,1,0.,24.0,0.,24.0
1979-07-20 08:40:43.690 ,6,0,0.,24.0,0.,24.0
1979-07-20 08:41:07.690 ,7,1,0.,24.0,0.,24.0
1979-07-20 08:41:31.690 ,7,0,0.,24.0,0.,24.0
1979-07-20 08:41:55.690 ,7,1,0.,24.0,0.,24.0
1979-07-20 08:42:19.690 ,7,0,0.,24.0,0.,24.0
1979-07-20 08:42:43.690 ,6,1,0.,24.0,0.,24.0
1979-07-20 08:43:07.690 ,6,0,0.,24.0,0.,24.0
1979-07-20 08:43:31.690 ,5,1,0.,24.0,0.,24.0
1979-07-20 08:43:55.690 ,0,0,0.,24.0,0.,24.0
1979-07-20 08:44:20.890 ,0,0,0.,24.0,0.,24.0
1979-07-20 08:44:43.690 ,0,0,0.,24.0,0.,24.0
1979-07-20 08:45:07.690 ,3,1,0.,24.0,0.,24.0
1979-07-20 08:45:31.690 ,3,0,0.,24.0,0.,24.0
1979-07-20 08:45:55.690 ,2,1,0.,24.0,0.,24.0
1979-07-20 08:46:19.690 ,2,0,0.,24.0,0.,24.0
1979-07-20 08:46:43.680 ,1,1,0.,24.0,0.,24.0
1979-07-20 08:47:07.680 ,1,0,0.,24.0,0.,24.0
1979-07-20 08:47:31.680 ,0,1,0.,24.0,0.,24.0
1979-07-20 08:47:55.680 ,0,0,0.,24.0,0.,24.0
1979-07-20 08:48:19.680 ,0,1,0.,24.0,0.,24.0
1979-07-20 08:48:43.680 ,0,0,0.,24.0,0.,24.0
1979-07-20 08:49:07.680 ,1,1,0.,24.0,0.,24.0
1979-07-20 08:49:31.680 ,1,0,0.,24.0,0.,24.0
1979-07-20 08:49:55.680 ,2,1,0.,24.0,0.,24.0
1979-07-20 08:50:19.680 ,2,0,0.,24.0,0.,24.0
1979-07-20 08:50:43.680 ,3,1,0.,24.0,0.,24.0
1979-07-20 08:51:07.680 ,3,0,0.,24.0,0.,24.0
1979-07-20 08:51:31.680 ,4,1,0.,24.0,0.,24.0
1979-07-20 08:51:55.680 ,4,0,0.,24.0,0.,24.0
1979-07-20 08:52:19.680 ,5,1,0.,24.0,0.,24.0
1979-07-20 08:52:43.680 ,5,0,0.,24.0,0.,24.0
1979-07-20 08:53:07.680 ,6,1,0.,24.0,0.,24.0
1979-07-20 08:53:31.680 ,6,0,0.,24.0,0.,24.0
1979-07-20 08:53:55.680 ,7,1,0.,24.0,0.,24.0
1979-07-20 08:54:19.680 ,7,0,0.,24.0,0.,24.0
1979-07-20 08:54:43.680 ,7,1,0.,24.0,0.,24.0
1979-07-20 08:55:07.680 ,7,0,0.,24.0,0.,24.0
1979-07-20 08:55:31.680 ,6,1,0.,24.0,0.,24.0
1979-07-20 08:55:55.680 ,6,0,0.,24.0,0.,24.0
1979-07-20 08:56:19.680 ,5,1,0.,24.0,0.,24.0
1979-07-20 08:56:43.680 ,5,0,0.,24.0,0.,24.0
1979-07-20 08:57:07.680 ,4,1,0.,24.0,0.,24.0
1979-07-20 08:57:31.680 ,4,0,0.,24.0,0.,24.0
1979-07-20 08:57:55.680 ,3,1,0.,24.0,0.,24.0
1979-07-20 08:58:19.680 ,3,0,0.,24.0,0.,24.0
1979-07-20 08:58:43.680 ,2,1,0.,24.0,0.,24.0
1979-07-20 08:59:07.680 ,2,0,0.,24.0,0.,24.0
1979-07-20 08:59:31.680 ,0,0,0.,24.0,0.,24.0
1979-07-20 08:59:55.680 ,0,0,,0,,0
